{"data":{"norad_id":67217,"intl_designator":"2025-304AB","name":"STARLINK-36216","alt_names":[],"object_type":"PAYLOAD","status":"ACTIVE","operator":null,"country":"US","launch_date":"2025-12-17","launch_site_code":"AFWTR","launch_vehicle":null,"mission":null,"orbit_class":"UNKNOWN","rcs_meters":null,"size_class":null,"mass_kg":null,"dimensions":null,"purposes":["comms"],"wikipedia_slug":null,"has_3d_model":false,"image_url":null,"decayed_at":null,"tle_current":{"epoch":"2026-05-24T22:15:44.506080Z","epoch_age_seconds":84528,"freshness":"FRESH","line1":"1 67217U 25304AB  26144.92759845  .00004309  00000+0  36853-3 0  9996","line2":"2 67217  70.0021 342.2574 0002624 266.1103  93.9756 14.98346633 25299","mean_motion":14.98346633,"eccentricity":0.0002624,"inclination_deg":70.0021,"raan_deg":342.2574,"arg_perigee_deg":266.1103,"mean_anomaly_deg":93.9756,"bstar":0.00036853,"rev_number":2529,"period_min":96.105932251259,"perigee_km":570.18073812195,"apogee_km":573.82817235766,"semimajor_km":6950.1414552398,"source":"CELESTRAK","updated_at":"2026-05-25T13:38:21.513638Z"}}}